Temperature
18 18 18 18 18 18 18 18 18 18 17 17 17 17 17 17 17 17 17 17 17 17 17 17 17 17 17 17 17 17 17 17 17 17 17 17 17 17 16 16 16 16 16
18 18 18 18 18 18 18 18 18 18 17 17 17 17 17 17 17 17 17 17 17 17 17 17 17 17 17 17 17 17 17 17 17 17 17 16 17 16 16 16 16 16 16
18 18 18 18 18 18 18 18 18 18 17 17 17 17 17 17 17 17 17 17 17 17 17 17 17 17 17 17 17 17 17 17 17 17 17 17 16 17 16 16 16 16 16
18 18 18 18 18 18 18 18 18 18 18 17 17 17 17 17 17 17 17 17 17 17 17 17 17 17 17 17 17 17 17 17 17 17 17 17 17 17 16 16 16 16 16
18 18 18 18 18 18 18 18 18 18 18 18 17 17 17 17 17 17 17 17 17 17 17 17 17 17 17 17 17 17 17 17 16 17 17 17 17 16 16 16 16 16 16
18 18 18 18 18 18 18 18 18 18 17 17 18 18 18 17 17 17 17 17 17 17 17 16 17 17 17 17 17 17 17 17 17 17 17 17 17 16 16 16 16 16 16
18 18 18 18 18 18 18 18 18 18 17 17 17 18 18 18 18 17 17 17 17 17 17 16 16 17 17 17 17 17 17 17 17 17 17 17 16 16 16 16 16 16 16
18 18 18 18 18 18 18 18 18 18 18 17 18 18 19 19 18 18 17 17 17 17 17 17 16 16 16 16 17 17 17 16 16 16 17 16 16 16 16 16 16 16 16
18 18 18 18 18 18 18 18 18 17 18 17 17 18 19 19 18 18 17 17 17 17 17 17 17 16 16 16 16 16 17 16 16 16 16 16 16 16 16 16 16 16 16
18 18 18 18 18 18 18 18 18 17 17 18 17 17 17 18 18 18 18 18 17 17 17 17 17 17 16 16 16 16 16 16 16 16 16 16 16 16 16 16 16 16 16
19 18 18 18 18 18 18 18 18 17 17 18 18 17 17 17 17 18 18 17 17 17 17 17 17 16 16 16 16 16 16 16 16 16 16 16 16 16 16 16 16 16 16
19 18 18 18 18 18 18 18 18 18 17 17 17 17 17 18 18 18 18 17 17 17 17 17 16 16 16 16 16 16 16 16 16 16 16 16 16 16 16 16 16 16 15
19 18 18 18 18 18 18 18 18 18 17 17 17 17 17 17 17 17 17 17 17 17 17 17 16 16 16 16 16 16 16 16 16 16 16 16 16 16 16 16 16 15 15
19 18 18 18 18 18 18 18 17 17 17 17 17 17 17 17 17 17 17 17 17 17 17 17 16 16 16 16 16 16 16 16 16 16 16 16 16 16 15 15 15 15 15
18 18 18 18 18 18 18 18 17 17 17 17 17 17 17 17 17 17 17 17 17 17 17 17 16 16 16 15 15 15 15 15 16 15 15 15 15 15 15 15 15 15 15
18 18 18 18 18 18 18 17 17 17 17 17 17 17 17 16 16 16 16 16 16 17 17 17 16 16 16 15 15 15 15 15 15 15 15 15 15 15 15 15 15 15 15
18 18 18 18 18 18 17 17 17 17 17 17 17 17 16 16 16 16 16 16 16 16 16 16 16 16 15 15 15 15 15 15 15 15 15 15 15 15 15 15 15 15 15
18 18 18 18 17 17 17 17 17 17 17 16 16 16 16 16 16 16 16 16 16 16 16 15 15 15 15 15 15 15 15 15 15 15 15 15 15 15 15 15 15 15 14
18 18 18 18 18 17 17 17 17 17 16 16 16 16 16 16 16 16 16 16 16 16 15 15 15 15 15 15 14 14 14 15 15 15 15 15 15 15 15 15 15 14 14
18 18 18 18 17 17 17 17 17 16 16 16 16 16 16 16 16 16 16 16 15 15 15 15 15 15 15 14 14 14 15 15 15 15 15 15 15 15 15 15 15 14 14
18 18 18 17 17 17 17 17 16 16 16 16 16 16 16 16 16 16 16 15 15 15 15 15 15 15 15 14 14 14 15 15 14 14 14 14 14 14 14 14 14 14 14
18 17 17 17 17 17 17 17 17 16 16 16 16 16 15 16 16 16 15 15 15 15 15 15 15 15 14 14 14 14 14 14 14 14 14 14 14 14 14 14 14 14 14
17 17 17 17 17 17 17 17 17 16 16 16 16 16 15 15 15 15 15 15 15 15 14 14 14 14 14 14 14 14 14 14 14 14 14 14 14 14 14 14 14 14 14
17 17 17 17 17 17 17 17 17 16 16 16 15 15 15 15 15 15 15 14 14 14 14 14 14 14 14 14 14 14 14 13 14 13 13 14 14 14 14 13 13 13 14
17 17 16 17 17 17 17 17 16 16 15 15 15 15 15 15 15 14 14 14 14 14 14 14 14 14 13 13 13 13 13 13 14 13 13 13 13 13 13 13 13 13 13
16 16 16 16 16 16 16 16 16 15 15 15 14 14 15 14 14 14 14 14 13 13 13 13 13 13 13 13 13 13 13 13 13 13 13 13 13 13 13 13 13 13 13
Wind_Speed
3 3 3 3 2 3 4 3 3 4 4 4 3 3 2 2 2 2 3 5 4 4 4 5 6 7 7 7 7 7 8 8 8 8 8 8 8 9 9 9 9 9 9
3 2 3 2 2 2 2 2 3 3 2 2 2 2 2 2 2 2 2 5 5 5 4 5 6 7 7 6 7 7 7 8 8 8 9 9 9 9 9 9 9 9 9
3 2 2 2 2 2 3 3 3 2 2 2 2 2 2 2 2 2 2 2 4 6 5 4 5 6 7 6 7 7 7 8 8 9 9 10 9 10 10 10 10 10 10
2 1 1 2 2 2 2 2 2 2 2 2 2 1 1 2 2 2 3 2 2 3 5 5 5 6 7 7 6 7 7 7 8 9 9 9 9 10 10 10 10 11 11
2 2 1 2 2 2 2 2 2 1 1 1 1 2 2 2 2 2 3 3 3 3 3 6 6 7 7 7 7 6 7 7 7 8 9 9 9 9 9 10 10 10 11
1 1 2 2 2 2 2 1 2 1 1 1 1 1 2 2 2 2 3 3 3 3 3 3 4 7 9 8 8 8 7 8 8 8 9 9 10 10 10 10 10 11 11
1 1 1 2 2 2 2 2 2 2 2 1 2 1 2 3 2 2 2 2 2 3 3 4 4 4 6 10 9 8 7 8 9 9 9 9 10 10 10 10 10 11 11
1 1 1 2 2 1 2 2 2 2 2 2 2 2 2 2 2 2 2 2 2 2 3 4 4 4 4 4 6 9 8 8 7 7 8 8 9 10 10 10 10 11 11
1 0 1 1 1 2 2 3 3 3 2 2 2 3 3 2 1 2 2 2 2 2 3 3 3 3 4 4 4 7 9 9 8 8 7 8 8 9 11 11 11 11 11
1 1 1 1 2 2 2 3 3 3 3 3 2 3 4 3 3 2 2 2 2 3 3 3 3 3 4 4 3 3 7 8 8 8 8 7 8 9 10 11 11 12 11
2 2 1 2 2 2 2 3 2 3 3 3 3 2 2 3 4 4 3 3 2 2 2 3 2 2 3 3 3 3 5 7 8 8 8 8 8 8 9 10 10 11 12
2 2 2 2 3 2 3 3 4 4 4 3 4 3 3 3 3 3 4 4 3 2 2 2 2 2 3 3 2 4 4 5 6 7 8 9 9 8 8 9 9 10 11
2 1 2 2 2 3 3 3 3 4 4 4 5 4 4 4 4 4 4 4 4 3 2 3 2 2 2 2 2 4 4 5 5 6 6 7 8 8 8 8 8 8 8
2 2 2 3 3 3 3 3 3 3 3 4 5 4 4 4 4 5 5 5 4 4 3 3 2 2 2 2 1 3 3 5 5 6 6 6 6 7 7 7 7 7 7
3 2 3 3 3 3 3 3 3 3 3 4 4 4 4 4 4 5 5 5 5 5 3 2 2 1 2 1 2 3 3 4 5 5 6 6 7 7 6 6 6 7 7
2 3 3 3 3 4 4 4 4 3 4 4 4 4 5 5 4 4 4 4 5 6 5 3 2 2 2 2 2 3 3 4 6 6 6 6 6 6 6 7 7 7 7
3 3 3 4 4 4 4 4 4 4 4 4 4 4 5 5 5 4 4 4 4 4 5 4 2 2 2 3 2 3 4 4 4 9 8 7 7 6 6 6 6 7 7
4 4 4 4 4 4 4 4 5 4 5 5 5 5 5 4 5 5 4 4 4 4 5 5 3 3 3 3 3 4 3 4 3 7 9 8 8 8 7 7 7 6 6
4 4 4 4 4 4 4 4 4 4 5 5 5 5 5 5 5 4 4 4 3 4 3 4 4 3 3 2 3 4 4 4 4 5 9 10 9 9 8 8 7 7 7
4 4 4 4 4 5 4 4 4 4 5 4 4 4 4 4 5 5 4 4 4 4 3 4 4 3 3 3 3 3 4 3 4 4 3 5 8 10 10 9 8 7 7
4 4 4 4 4 4 4 4 4 4 4 4 3 3 3 2 3 3 3 3 3 3 3 4 3 3 3 2 3 4 4 4 3 3 4 4 5 6 7 10 9 8 7
4 4 4 4 4 4 1 2 4 4 4 4 4 4 3 2 1 1 2 2 2 3 4 3 3 3 3 3 3 4 4 4 4 2 3 4 4 4 4 4 7 9 8
4 5 4 4 4 3 2 3 4 4 4 3 3 3 3 2 2 2 2 3 1 2 3 4 3 3 3 3 4 5 4 5 4 4 4 4 3 4 4 2 7 9 9
4 4 4 4 4 3 2 3 4 4 4 4 3 3 3 2 2 2 2 2 2 2 3 3 3 4 3 3 4 5 5 5 5 4 4 5 4 4 3 2 7 9 9
4 4 3 3 3 3 2 3 4 3 3 4 3 3 3 3 1 2 3 3 3 3 2 2 2 2 2 2 4 4 4 5 5 3 3 4 4 4 4 3 4 9 9
5 4 3 3 4 3 2 3 4 3 3 3 2 2 2 2 1 2 3 3 4 4 3 3 3 4 4 4 4 5 5 5 5 4 2 3 4 4 4 3 2 3 5
Wind_Direction
112 116 109 114 123 130 141 141 135 137 150 165 169 168 180 201 207 205 151 162 200 220 225 214 214 211 209 209 209 205 205 206 206 204 201 200 200 197 197 198 196 197 201
99 108 118 119 118 122 120 134 134 143 145 144 159 169 192 189 182 226 193 177 191 203 213 214 216 210 210 210 206 206 204 208 208 204 203 204 205 204 202 200 199 199 198
112 129 123 135 119 128 133 136 137 145 156 166 167 173 191 198 192 213 231 221 184 184 198 215 216 212 212 207 201 204 206 210 209 205 205 207 210 207 206 206 203 204 204
131 144 123 122 134 143 139 149 164 157 157 175 178 199 197 196 212 217 217 206 217 188 179 191 214 212 204 207 207 208 208 208 206 204 203 206 208 206 208 208 206 206 208
145 165 137 132 169 155 165 182 154 175 173 185 199 199 215 215 226 224 225 216 212 218 196 164 190 198 201 206 208 210 209 206 203 201 203 205 206 205 205 205 206 205 205
150 183 170 160 179 167 168 166 166 187 208 232 257 248 240 221 229 231 234 215 205 214 215 205 197 198 200 204 206 209 209 207 207 207 210 211 210 207 206 207 208 208 208
146 211 197 161 196 176 186 188 187 186 212 222 250 251 213 216 223 229 238 237 217 223 217 219 229 221 196 198 203 208 211 213 212 211 214 215 213 210 208 209 210 210 211
213 200 190 212 196 186 195 195 206 237 235 238 277 276 244 202 204 227 222 217 244 235 220 219 227 228 238 205 186 197 209 215 216 215 217 219 215 212 212 212 212 211 211
210 276 203 247 226 229 206 212 213 227 247 244 267 290 296 310 284 200 228 220 225 245 250 235 221 219 228 225 203 190 202 213 217 221 220 219 218 216 217 214 216 216 214
216 225 236 260 256 250 222 231 213 229 238 248 245 267 287 307 290 275 228 227 233 242 257 251 230 213 221 223 217 197 193 206 215 223 224 221 220 220 219 219 221 222 221
218 230 238 248 248 252 244 253 230 241 237 255 265 263 255 255 262 274 280 284 269 256 249 246 252 237 224 224 220 186 182 206 216 224 226 226 226 227 226 225 225 225 225
210 216 232 245 252 260 248 246 238 228 242 254 268 265 264 262 272 265 270 270 274 271 265 260 259 245 230 227 217 138 178 208 220 226 226 225 225 227 231 232 232 231 228
235 229 249 245 259 255 253 254 245 255 240 243 252 257 263 264 271 270 270 274 275 266 253 247 245 247 244 237 196 155 198 211 223 229 228 226 225 226 229 232 233 232 231
266 265 248 249 257 257 254 247 251 246 239 245 251 260 264 265 265 264 267 270 268 260 245 249 254 247 257 248 149 194 219 196 215 228 229 226 223 224 226 230 228 228 229
260 239 243 249 254 253 254 251 255 255 242 247 249 244 257 266 263 267 265 261 265 270 272 243 253 260 261 250 183 243 247 185 207 225 226 227 226 225 226 229 230 228 228
272 266 251 247 249 246 242 245 246 241 246 252 262 272 273 273 273 269 264 266 266 268 269 262 264 277 302 272 195 244 250 187 204 212 220 226 227 228 228 228 231 230 228
239 240 245 245 244 247 245 243 250 246 246 251 257 257 261 280 280 277 264 261 260 257 257 268 263 256 269 280 268 252 244 234 212 193 203 214 220 222 224 225 227 229 226
233 232 238 239 244 245 245 244 248 250 249 251 256 259 263 264 265 272 269 262 263 262 253 259 262 258 246 254 272 269 263 255 244 177 192 205 212 217 219 217 221 221 219
225 234 236 237 241 246 243 243 247 251 254 257 259 258 260 266 267 268 268 267 266 256 247 244 253 261 256 250 257 259 267 269 262 195 190 200 205 212 215 211 213 215 217
216 223 233 240 246 246 244 242 240 246 252 254 257 259 261 267 269 266 261 266 269 265 250 246 250 248 245 241 258 263 262 246 267 254 217 199 195 205 209 207 209 212 213
221 224 234 240 246 245 244 242 237 236 242 249 251 255 259 281 300 291 282 272 267 264 255 250 251 255 256 257 263 269 272 276 257 257 253 227 205 213 206 206 205 204 206
222 225 228 237 243 249 254 245 244 240 237 240 244 249 249 241 249 263 305 317 300 263 264 262 259 253 266 266 275 275 280 280 275 252 262 262 241 236 224 219 179 189 204
217 221 225 229 236 244 225 229 238 236 234 236 235 239 250 249 220 240 220 210 239 280 267 256 258 268 259 269 275 270 277 284 286 290 274 268 265 255 239 199 164 186 202
217 217 220 224 235 233 194 224 234 226 236 239 240 236 242 259 269 263 245 236 238 242 240 236 239 260 272 281 268 265 271 264 255 261 266 267 267 266 262 215 172 187 203
218 221 220 223 236 245 198 216 236 225 225 235 239 236 232 231 281 265 233 234 238 237 211 200 214 227 267 284 287 273 273 267 263 252 248 263 275 273 267 256 199 187 198
215 225 229 231 237 248 202 204 241 237 231 236 233 228 200 216 240 268 242 244 248 253 250 231 216 222 230 227 229 253 265 269 272 264 266 269 275 279 272 257 261 226 214
Height
1542 1543 1543 1543 1545 1545 1546 1546 1547 1547 1548 1548 1549 1549 1549 1550 1550 1551 1550 1549 1549 1548 1548 1547 1547 1547 1548 1548 1548 1548 1549 1549 1550 1550 1551 1552 1553 1554 1555 1556 1557 1558 1559
1543 1543 1544 1544 1545 1546 1546 1546 1547 1547 1548 1548 1548 1548 1549 1549 1549 1549 1549 1548 1547 1547 1546 1546 1545 1545 1545 1546 1546 1546 1547 1547 1548 1548 1549 1550 1552 1553 1554 1555 1555 1556 1557
1543 1544 1544 1545 1545 1546 1546 1546 1547 1547 1547 1548 1547 1548 1548 1548 1548 1548 1548 1548 1547 1546 1545 1544 1544 1544 1544 1544 1544 1545 1545 1545 1546 1546 1547 1548 1550 1551 1552 1553 1554 1554 1555
1543 1544 1544 1545 1545 1546 1546 1546 1547 1547 1547 1547 1547 1547 1547 1547 1547 1546 1547 1546 1546 1546 1544 1543 1542 1542 1543 1542 1543 1543 1543 1543 1544 1545 1545 1546 1548 1548 1549 1550 1551 1552 1553
1544 1544 1544 1544 1545 1546 1546 1547 1547 1547 1547 1547 1547 1546 1546 1546 1546 1546 1545 1545 1544 1544 1543 1542 1541 1541 1541 1541 1541 1541 1541 1542 1542 1543 1543 1544 1545 1546 1547 1548 1549 1550 1551
1544 1544 1544 1544 1545 1546 1546 1546 1546 1546 1546 1546 1546 1546 1545 1545 1545 1544 1544 1544 1543 1542 1542 1542 1541 1540 1540 1540 1540 1539 1539 1539 1540 1540 1541 1542 1543 1544 1545 1546 1546 1547 1548
1544 1544 1545 1544 1545 1545 1545 1545 1546 1546 1546 1545 1545 1545 1545 1544 1544 1543 1543 1543 1542 1541 1541 1540 1540 1540 1539 1538 1538 1538 1538 1538 1538 1538 1539 1540 1540 1541 1542 1543 1544 1545 1546
1544 1544 1544 1544 1544 1544 1544 1544 1544 1545 1546 1545 1545 1544 1544 1544 1543 1543 1542 1541 1541 1540 1540 1539 1538 1538 1538 1537 1536 1536 1536 1536 1536 1537 1537 1537 1538 1539 1540 1541 1541 1542 1543
1543 1543 1543 1543 1543 1544 1544 1543 1543 1544 1545 1545 1544 1544 1543 1542 1542 1542 1541 1540 1539 1539 1538 1538 1537 1536 1536 1536 1536 1535 1535 1535 1535 1535 1535 1535 1536 1536 1537 1538 1539 1539 1540
1543 1543 1542 1542 1542 1543 1542 1542 1543 1543 1543 1543 1543 1542 1542 1542 1541 1540 1540 1539 1538 1537 1537 1536 1536 1535 1534 1534 1534 1533 1533 1533 1533 1533 1533 1533 1533 1534 1535 1535 1536 1536 1537
1542 1542 1541 1541 1541 1541 1541 1540 1540 1540 1541 1541 1541 1541 1541 1540 1540 1539 1538 1538 1537 1536 1535 1534 1534 1534 1533 1532 1532 1531 1531 1531 1531 1531 1531 1531 1531 1532 1532 1533 1533 1533 1534
1541 1541 1540 1540 1539 1539 1539 1538 1538 1538 1538 1539 1539 1539 1539 1538 1538 1537 1536 1535 1534 1534 1533 1533 1532 1532 1531 1531 1530 1529 1528 1528 1529 1528 1529 1529 1529 1529 1529 1529 1530 1530 1531
1540 1539 1539 1538 1538 1537 1536 1536 1536 1536 1536 1536 1536 1536 1536 1536 1535 1535 1534 1533 1532 1532 1531 1531 1530 1530 1529 1529 1528 1526 1526 1526 1526 1526 1526 1526 1526 1526 1526 1526 1526 1527 1527
1538 1537 1537 1536 1536 1535 1535 1534 1534 1534 1533 1533 1534 1533 1533 1533 1533 1532 1532 1531 1530 1529 1529 1529 1528 1528 1527 1526 1525 1524 1524 1523 1523 1523 1523 1523 1523 1523 1523 1523 1523 1524 1524
1535 1535 1535 1534 1534 1533 1533 1532 1532 1532 1532 1532 1532 1531 1531 1531 1530 1529 1529 1528 1528 1526 1526 1526 1526 1525 1524 1524 1523 1522 1521 1520 1520 1520 1520 1520 1520 1520 1520 1520 1520 1521 1521
1532 1532 1532 1532 1531 1531 1531 1530 1530 1530 1529 1529 1529 1528 1528 1528 1527 1526 1526 1525 1525 1524 1523 1523 1523 1523 1522 1521 1520 1520 1519 1518 1518 1518 1517 1517 1517 1517 1517 1517 1518 1518 1519
1529 1529 1529 1529 1529 1529 1528 1528 1528 1527 1527 1527 1526 1526 1525 1524 1524 1524 1523 1522 1521 1521 1521 1521 1521 1520 1518 1518 1518 1517 1517 1516 1515 1515 1514 1514 1515 1515 1515 1514 1515 1515 1516
1526 1526 1526 1526 1526 1526 1526 1525 1525 1524 1524 1524 1523 1523 1522 1522 1521 1521 1520 1519 1518 1518 1518 1517 1517 1517 1516 1516 1515 1515 1515 1515 1514 1512 1512 1512 1512 1512 1512 1512 1512 1512 1513
1523 1523 1523 1523 1523 1523 1522 1522 1522 1522 1521 1521 1521 1520 1519 1519 1518 1517 1517 1516 1515 1515 1515 1515 1515 1515 1514 1514 1513 1513 1513 1512 1512 1510 1509 1509 1509 1509 1509 1509 1509 1509 1510
1520 1520 1520 1520 1520 1519 1519 1519 1518 1518 1518 1518 1517 1517 1516 1515 1515 1514 1514 1513 1513 1513 1513 1513 1512 1512 1512 1512 1511 1511 1511 1510 1509 1509 1507 1506 1506 1506 1506 1506 1506 1506 1507
1518 1518 1518 1517 1517 1517 1517 1516 1516 1516 1515 1515 1514 1514 1513 1512 1512 1511 1511 1511 1510 1510 1510 1510 1510 1510 1510 1510 1509 1509 1509 1508 1507 1506 1505 1505 1504 1503 1503 1502 1502 1503 1503
1515 1515 1515 1514 1514 1514 1514 1513 1513 1513 1512 1512 1511 1511 1510 1509 1509 1508 1508 1508 1508 1508 1508 1507 1507 1507 1507 1507 1507 1506 1506 1506 1505 1504 1503 1503 1502 1501 1501 1500 1500 1500 1500
1512 1512 1512 1511 1511 1511 1510 1510 1509 1509 1509 1508 1508 1507 1507 1507 1506 1506 1506 1505 1505 1505 1505 1505 1505 1504 1504 1504 1504 1503 1503 1503 1502 1502 1500 1500 1500 1499 1498 1498 1497 1497 1497
1509 1509 1508 1508 1508 1507 1507 1507 1507 1506 1506 1505 1505 1504 1504 1504 1504 1503 1503 1503 1502 1502 1502 1502 1502 1501 1502 1501 1501 1501 1500 1499 1498 1498 1497 1497 1496 1496 1495 1494 1493 1493 1493
1505 1505 1505 1505 1504 1504 1504 1504 1504 1503 1503 1502 1502 1501 1501 1501 1501 1501 1501 1500 1500 1500 1500 1499 1499 1498 1498 1498 1498 1498 1497 1497 1496 1496 1495 1494 1493 1493 1492 1492 1491 1490 1489
1502 1502 1502 1501 1501 1501 1501 1501 1500 1500 1500 1499 1499 1499 1498 1498 1498 1498 1498 1498 1498 1497 1497 1497 1496 1496 1495 1495 1494 1494 1494 1494 1494 1493 1492 1491 1491 1491 1490 1489 1489 1487 1486